Home > Weather > Monaco > Past weeks

Flag for Monaco Past Weather in Monaco, Monaco — Yesterday and Last 2 Weeks

Now
75 °F

Passing clouds.


Feels Like: 75 °F
Forecast: 68 / 81 °F
Wind: 3 mph from East

Location: Nice Airport

Current Time: Jul 30, 2016 at 1:56:32 AM

Latest Report: Jul 30, 2016 at 1:00 AM


Visibility: N/A

Pressure: 29.98 "Hg

Humidity: 83%

Dew Point: 70 °F

Location of MonacoLocation

Past Weather in Monaco — Graph

°F

Monaco Temperature Yesterday

Maximum temperature yesterday: 81 °F (at 12:30 PM)
Minimum temperature yesterday: 72 °F (at 5:00 AM)
Average temperature yesterday: 77 °F

High & Low Weather Summary for the Past Weeks

 TemperatureHumidityPressure
High86 °F (Jul 25, 10:30 AM)89% (Jul 22, 1:00 AM)30.18 "Hg (Jul 22, 1:00 AM)
Low64 °F (Jul 15, 4:30 AM)24% (Jul 16, 10:30 AM)29.86 "Hg (Jul 23, 3:30 AM)
Average75 °F66%30.00 "Hg
* Reported Jul 15 12:00 AM — Jul 30 12:00 AM, Monaco, Weather by CustomWeather, © 2016

Note: Actual official high and low records may vary slightly from our data, if they occured in-between our weather recording intervals... More about our weather records

Advertising

Monaco Weather History for the Previous 24 Hours

Scroll right to see more
 ConditionsComfort  
Time TempWeatherWind HumidityBarometerVisibility
12:00 AM
Sat, Jul 30
75 °FPassing clouds.3 mph83%29.98 "HgN/A
11:30 PM
Fri, Jul 29
75 °FPassing clouds.3 mph83%29.98 "HgN/A
11:00 PM77 °FPassing clouds.5 mph79%29.98 "HgN/A
10:30 PM77 °FPassing clouds.5 mph79%29.98 "HgN/A
10:00 PM77 °FPassing clouds.3 mph79%29.98 "HgN/A
9:30 PM77 °FScattered clouds.3 mph79%29.98 "HgN/A
9:00 PM77 °FScattered clouds.5 mph79%29.98 "HgN/A
8:30 PM77 °FScattered clouds.5 mph79%29.95 "HgN/A
8:00 PM77 °FScattered clouds.5 mph79%29.95 "HgN/A
7:30 PM77 °FScattered clouds.5 mph79%29.95 "HgN/A
7:05 PM79 °FScattered clouds.5 mph74%29.95 "HgN/A
6:30 PM79 °FScattered clouds.6 mph74%29.95 "HgN/A
6:00 PM79 °FScattered clouds.8 mph79%29.95 "HgN/A
5:30 PM81 °FPassing clouds.10 mph70%29.95 "HgN/A
5:00 PM81 °FPassing clouds.10 mph70%29.95 "HgN/A
4:30 PM81 °FPassing clouds.10 mph70%29.98 "HgN/A
4:00 PM81 °FPassing clouds.10 mph70%29.98 "HgN/A
3:30 PM81 °FPassing clouds.9 mph70%29.98 "HgN/A
3:00 PM81 °FPassing clouds.9 mph70%29.98 "HgN/A
2:30 PM79 °FPassing clouds.8 mph74%29.98 "HgN/A
2:00 PM81 °FScattered clouds.8 mph74%29.98 "HgN/A
1:00 PM81 °FPassing clouds.10 mph70%29.98 "HgN/A
12:30 PM81 °FPassing clouds.9 mph70%29.98 "HgN/A
12:00 PM79 °FPassing clouds.9 mph74%29.98 "HgN/A
11:30 AM79 °FPassing clouds.9 mph74%29.98 "HgN/A
11:00 AM79 °FPassing clouds.8 mph74%29.98 "HgN/A
10:30 AM79 °FPassing clouds.9 mph74%29.98 "HgN/A
10:00 AM79 °FPassing clouds.8 mph74%29.98 "HgN/A
9:30 AM79 °FScattered clouds.8 mph70%29.98 "HgN/A
9:00 AM79 °FPassing clouds.3 mph70%29.98 "HgN/A
8:30 AM77 °FPassing clouds.2 mph65%29.98 "HgN/A
8:05 AM75 °FPassing clouds.5 mph65%29.98 "HgN/A
7:30 AM73 °FPassing clouds.6 mph65%29.95 "HgN/A
7:00 AM72 °FPassing clouds.7 mph69%29.95 "HgN/A
6:30 AM72 °FPassing clouds.6 mph69%29.95 "HgN/A
6:00 AM72 °FPassing clouds.6 mph69%29.95 "HgN/A
5:30 AM72 °FClear.7 mph73%29.95 "Hg10 mi
5:00 AM72 °FClear.5 mph73%29.95 "Hg10 mi
4:30 AM73 °FClear.5 mph69%29.95 "Hg10 mi
4:00 AM73 °FClear.5 mph74%29.95 "Hg10 mi
3:30 AM73 °FClear.5 mph74%29.95 "Hg10 mi
3:00 AM73 °FClear.3 mph74%29.95 "Hg10 mi
2:30 AM73 °FClear.2 mph78%29.95 "Hg10 mi
2:00 AM73 °FClear.3 mph78%29.95 "Hg10 mi
1:30 AM75 °FClear.2 mph83%29.95 "Hg10 mi
1:00 AM75 °FClear.2 mph83%29.95 "Hg10 mi
Weather by CustomWeather, © 2016

See weather overviewHow to use our weather pages